Phillips, WI

7:44 PM CDT on April 25, 2017 (GMT -0500)
Price County

Weather History for KPBH - September, 2013

Change the Weather History Date:

Saturday, September 21, 2013

  Actual Average Record
Temperature  
Mean Temperature 47 °F -  
Max Temperature 56 °F 62 °F 82 °F (2005)
Min Temperature 37 °F 43 °F 32 °F (2006)
Degree Days  
Heating Degree Days 18    
Moisture  
Dew Point 41 °F    
Average Humidity 81    
Maximum Humidity 99    
Minimum Humidity 53    
Precipitation  
Precipitation 0.00 in - - ()
Sea Level Pressure  
Sea Level Pressure 29.91 in    
Wind  
Wind Speed 3 mph (NW)    
Max Wind Speed 9 mph    
Max Gust Speed -    
Visibility 10 miles    
Events      
Averages and records for this station are not official NWS values.
T = Trace of Precipitation, MM = Missing Value Source: NWS Daily Summary

Daily Weather History Graph

Daily Weather History Graph

Search for Another Location

Airport or City:

Trip Planner

Search our weather history database for the weather conditions in past years. The results will help you decide how hot, cold, wet, or windy it might be!

Date:

Astronomy

Sep. 21, 2013 Rise Set
Actual Time 6:47 AM CDT 7:00 PM CDT
Civil Twilight 6:17 AM CDT 7:30 PM CDT
Nautical Twilight 5:42 AM CDT 8:05 PM CDT
Astronomical Twilight 5:07 AM CDT 8:40 PM CDT
Moon 8:01 PM CDT (9/21) 9:15 AM CDT (9/21)
Length of Visible Light 13h 12m
Length of Day
12h 12m
Waning Gibbous, 94% of the Moon is Illuminated
Sep 21
Waning Gibbous
Sep 26
Last Quarter
Oct 4
New
Oct 11
First Quarter
Oct 18
Full

Hourly Weather History & Observations

Time (CDT) Temp. Windchill Dew Point Humidity Pressure Visibility Wind Dir Wind Speed Gust Speed Precip Events Conditions
12:15 AM 45.1 °F - 43.7 °F 95% 29.85 in 10.0 mi Calm Calm - N/A   Clear
12:35 AM 44.8 °F - 43.5 °F 95% 29.85 in 10.0 mi Calm Calm - N/A   Clear
12:55 AM 44.2 °F - 43.2 °F 96% 29.84 in 10.0 mi Calm Calm - N/A   Clear
1:15 AM 43.9 °F - 42.8 °F 96% 29.85 in 10.0 mi Calm Calm - N/A   Clear
1:35 AM 43.3 °F - 42.6 °F 97% 29.85 in 10.0 mi Calm Calm - N/A   Scattered Clouds
1:55 AM 43.7 °F - 42.8 °F 97% 29.86 in 10.0 mi Calm Calm - N/A   Mostly Cloudy
2:15 AM 44.1 °F 42.5 °F 43.2 °F 97% 29.86 in 10.0 mi West 3.5 mph - N/A   Overcast
2:35 AM 45.0 °F - 43.7 °F 95% 29.85 in 10.0 mi Calm Calm - N/A   Overcast
2:55 AM 45.5 °F - 43.9 °F 94% 29.85 in 10.0 mi Calm Calm - N/A   Overcast
3:15 AM 45.9 °F - 44.2 °F 94% 29.85 in 10.0 mi Calm Calm - N/A   Overcast
3:35 AM 46.0 °F - 44.6 °F 95% 29.85 in 10.0 mi Calm Calm - N/A   Overcast
3:55 AM 46.4 °F 45.2 °F 44.4 °F 93% 29.86 in 10.0 mi WNW 3.5 mph - N/A   Overcast
4:15 AM 46.0 °F 44.8 °F 44.4 °F 94% 29.86 in 10.0 mi WNW 3.5 mph - N/A   Overcast
4:35 AM 46.4 °F 44.3 °F 44.2 °F 92% 29.86 in 10.0 mi WNW 4.6 mph - N/A   Overcast
4:55 AM 46.4 °F 45.2 °F 44.1 °F 92% 29.87 in 10.0 mi WNW 3.5 mph - N/A   Overcast
5:15 AM 46.4 °F 45.2 °F 43.9 °F 91% 29.87 in 10.0 mi WNW 3.5 mph - N/A   Overcast
5:35 AM 46.4 °F 44.3 °F 43.7 °F 90% 29.87 in 10.0 mi NW 4.6 mph - N/A   Overcast
5:55 AM 46.4 °F 45.2 °F 43.5 °F 90% 29.87 in 10.0 mi NW 3.5 mph - N/A   Overcast
6:15 AM 46.0 °F 44.8 °F 43.2 °F 90% 29.88 in 10.0 mi NW 3.5 mph - N/A   Overcast
6:35 AM 45.9 °F 42.9 °F 43.0 °F 90% 29.88 in 10.0 mi WNW 5.8 mph - N/A   Overcast
6:55 AM 45.5 °F 42.5 °F 42.8 °F 90% 29.89 in 10.0 mi NW 5.8 mph - N/A   Overcast
7:15 AM 45.5 °F 42.5 °F 42.1 °F 88% 29.89 in 10.0 mi NW 5.8 mph - N/A   Overcast
7:35 AM 45.5 °F 41.8 °F 41.9 °F 87% 29.89 in 10.0 mi NW 6.9 mph - N/A   Overcast
7:55 AM 45.7 °F 41.5 °F 41.9 °F 87% 29.89 in 10.0 mi NW 8.1 mph - N/A   Overcast
8:15 AM 45.5 °F 41.8 °F 41.7 °F 87% 29.90 in 10.0 mi NW 6.9 mph - N/A   Overcast
8:35 AM 44.8 °F 41.0 °F 42.1 °F 90% 29.91 in 4.0 mi NNW 6.9 mph - N/A   Overcast
8:55 AM 43.3 °F 38.1 °F 42.1 °F 95% 29.92 in 3.0 mi NNW 9.2 mph - N/A   Drizzle
9:15 AM 43.7 °F 40.3 °F 42.3 °F 95% 29.92 in 3.0 mi NNW 5.8 mph - N/A   Light Drizzle
9:35 AM 44.6 °F 42.2 °F 43.0 °F 94% 29.92 in 10.0 mi North 4.6 mph - N/A   Overcast
9:55 AM 44.4 °F 41.2 °F 42.1 °F 91% 29.92 in 10.0 mi NNW 5.8 mph - N/A   Overcast
10:15 AM 44.8 °F 41.0 °F 41.2 °F 87% 29.93 in 10.0 mi NNW 6.9 mph - N/A   Overcast
10:35 AM 45.0 °F 41.2 °F 40.6 °F 85% 29.93 in 10.0 mi NNW 6.9 mph - N/A   Overcast
10:55 AM 45.5 °F 42.5 °F 39.7 °F 80% 29.93 in 10.0 mi NNW 5.8 mph - N/A   Overcast
11:15 AM 46.0 °F 41.9 °F 39.0 °F 76% 29.93 in 10.0 mi NW 8.1 mph - N/A   Overcast
11:35 AM 47.3 °F - 39.0 °F 73% 29.93 in 10.0 mi NW 8.1 mph - N/A   Mostly Cloudy
11:55 AM 48.9 °F - 38.5 °F 67% 29.93 in 10.0 mi North 8.1 mph - N/A   Mostly Cloudy
12:15 PM 50.2 °F - 38.5 °F 64% 29.92 in 10.0 mi NNW 8.1 mph - N/A   Mostly Cloudy
12:35 PM 50.9 °F - 37.8 °F 61% 29.93 in 10.0 mi NNW 8.1 mph - N/A   Mostly Cloudy
12:55 PM 52.5 °F - 39.0 °F 60% 29.92 in 10.0 mi NW 6.9 mph - N/A   Mostly Cloudy
1:15 PM 53.1 °F - 38.8 °F 59% 29.92 in 10.0 mi North 5.8 mph - N/A   Scattered Clouds
1:35 PM 53.2 °F - 39.4 °F 59% 29.92 in 10.0 mi WNW 6.9 mph - N/A   Scattered Clouds
1:55 PM 52.9 °F - 38.1 °F 57% 29.92 in 10.0 mi NNW 4.6 mph - N/A   Scattered Clouds
2:15 PM 54.1 °F - 38.8 °F 56% 29.92 in 10.0 mi WNW 5.8 mph - N/A   Scattered Clouds
2:35 PM 54.5 °F - 39.6 °F 57% 29.92 in 10.0 mi WNW 9.2 mph - N/A   Scattered Clouds
2:55 PM 54.9 °F - 39.9 °F 57% 29.91 in 10.0 mi NNW 5.8 mph - N/A   Scattered Clouds
3:15 PM 55.0 °F - 39.9 °F 57% 29.91 in 10.0 mi NW 8.1 mph - N/A   Scattered Clouds
3:35 PM 55.8 °F - 39.4 °F 54% 29.91 in 10.0 mi West 6.9 mph - N/A   Scattered Clouds
3:55 PM 56.5 °F - 40.6 °F 55% 29.91 in 10.0 mi NNW 5.8 mph - N/A   Mostly Cloudy
4:15 PM 55.9 °F - 39.4 °F 54% 29.91 in 10.0 mi NW 8.1 mph - N/A   Scattered Clouds
4:35 PM 56.3 °F - 39.4 °F 53% 29.91 in 10.0 mi North 6.9 mph - N/A   Scattered Clouds
4:55 PM 55.0 °F - 39.6 °F 56% 29.91 in 10.0 mi WNW 5.8 mph - N/A   Scattered Clouds
5:15 PM 55.4 °F - 39.4 °F 55% 29.91 in 10.0 mi North 4.6 mph - N/A   Scattered Clouds
5:35 PM 54.9 °F - 39.2 °F 56% 29.91 in 10.0 mi NNW 6.9 mph - N/A   Clear
5:55 PM 54.7 °F - 40.3 °F 58% 29.91 in 10.0 mi NW 6.9 mph - N/A   Clear
6:15 PM 53.8 °F - 39.7 °F 59% 29.92 in 10.0 mi NNW 4.6 mph - N/A   Clear
6:35 PM 52.7 °F - 39.9 °F 62% 29.91 in 10.0 mi North 3.5 mph - N/A   Clear
6:55 PM 51.1 °F - 40.3 °F 67% 29.92 in 10.0 mi Calm Calm - N/A   Clear
7:15 PM 49.5 °F - 40.5 °F 71% 29.92 in 10.0 mi Calm Calm - N/A   Clear
7:35 PM 47.3 °F - 40.6 °F 78% 29.92 in 10.0 mi Calm Calm - N/A   Clear
7:55 PM 46.2 °F - 40.6 °F 81% 29.93 in 10.0 mi Calm Calm - N/A   Clear
8:15 PM 45.0 °F - 40.6 °F 85% 29.93 in 10.0 mi Calm Calm - N/A   Clear
8:35 PM 43.9 °F 41.3 °F 40.6 °F 88% 29.94 in 10.0 mi NE 4.6 mph - N/A   Clear
8:55 PM 43.7 °F - 39.9 °F 87% 29.94 in 10.0 mi Calm Calm - N/A   Clear
9:15 PM 40.8 °F - 39.6 °F 95% 29.95 in 10.0 mi Calm Calm - N/A   Clear
9:35 PM 41.2 °F - 39.9 °F 95% 29.96 in 10.0 mi Calm Calm - N/A   Clear
9:55 PM 40.5 °F - 39.2 °F 95% 29.96 in 10.0 mi Calm Calm - N/A   Clear
10:15 PM 39.2 °F - 38.7 °F 98% 29.97 in 10.0 mi Calm Calm - N/A   Clear
10:35 PM 39.4 °F - 39.0 °F 99% 29.98 in 10.0 mi Calm Calm - N/A   Clear
10:55 PM 40.1 °F - 39.0 °F 96% 29.98 in 10.0 mi Calm Calm - N/A   Clear
11:15 PM 38.5 °F - 37.8 °F 97% 29.98 in 10.0 mi Calm Calm - N/A   Clear
11:35 PM 38.3 °F - 37.6 °F 97% 29.98 in 10.0 mi Calm Calm - N/A   Clear
11:55 PM 37.8 °F - 37.0 °F 97% 29.99 in 10.0 mi Calm Calm - N/A   Clear